Regional Weather Roundup
Issued by NWS Upton, NY

Current Version | Previous Version | Text Only | Print | Product List | Glossary On
Versions: 1 2 3 4 5 6 7 8 9 10 11 12 13 14 15 16 17 18 19 20 21 22 23 24 25 26 27
000
ASUS41 KOKX 281005
RWROKX

REGIONAL WEATHER ROUNDUP
NATIONAL WEATHER SERVICE NEW YORK NY
600 AM EDT THU JUL 28 2016

NOTE: "FAIR" INDICATES FEW OR NO CLOUDS BELOW 12,000 FEET WITH NO
SIGNIFICANT WEATHER AND/OR OBSTRUCTIONS TO VISIBILITY.

NYZ071-072-176-178-NJZ106-104-281100-
NEW YORK CITY METRO AREA

CITY           SKY/WX    TMP DP  RH WIND       PRES   REMARKS
Central Park   CLEAR     77  71  82 CALM      29.93S
LaGuardia APRT PTCLDY    80  72  76 NW5       29.90S
Kennedy INTL   CLEAR     75  72  90 CALM      29.91S
Newark/Liberty PTCLDY    75  70  84 W3        29.90S
Bronx Bot Gard   N/A     73  70  88 E1        29.91F
Wall St Helipt SUNNY     75  73  94 SW3       29.91S
Teterboro      CLEAR     74  63  68 CALM      29.90S
$$

NYZ177-179-078>081-281100-
LONG ISLAND NEW YORK

CITY           SKY/WX    TMP DP  RH WIND       PRES   REMARKS
Farmingdale    CLOUDY    76  74  93 CALM      29.91S FOG
MacArthur/ISP  MOCLDY    74  73  97 CALM      29.91R FOG
Shirley        CLOUDY    75  74  96 CALM      29.92R FOG
Riverhead      NOT AVBL
Westhampton    FOG       74  72  93 NW5       29.93R VSB 1/4
Southhampton     N/A     72  70  94 CALM      29.88R
Bridgehampton    N/A     66  66 100 CALM      29.91R
East Hampton   CLOUDY    64  62  96 CALM      29.91R FOG
Montauk          N/A     70  69  97 CALM      29.93R
$$

NYZ052-065-067-281100-
HUDSON VALLEY

CITY           SKY/WX    TMP DP  RH WIND       PRES   REMARKS
White Plains   CLEAR     69  67  93 NW6       29.92S
Newburgh       CLEAR     66  63  88 CALM      29.94S
Montgomery     CLEAR     63  62  97 CALM      29.93R
Poughkeepsie   CLEAR     65  61  87 CALM      29.91S
Albany         PTCLDY    66  61  84 CALM      29.91R
$$

NJZ001-105-106-008-010-013-015-019>022-104-281100-
NEW JERSEY

CITY           SKY/WX    TMP DP  RH WIND       PRES   REMARKS
Newark/Liberty PTCLDY    75  70  84 W3        29.90S
Teterboro      CLEAR     74  63  68 CALM      29.90S
Caldwell       CLEAR     68  65  90 CALM      29.92S
Morristown     CLEAR     63  59  88 CALM      29.92S
Somerville     CLEAR     65  63  93 CALM      29.90R
Linden         FAIR      75  70  83 CALM      29.92S
Sussex         CLEAR     61  61 100 CALM      29.94R
Abdover          N/A     62  61  96 CALM      29.94S
Trenton        FOG       71  70  96 CALM      29.91R VSB 1/4
Millville      MOCLDY    72  70  93 CALM      29.91R FOG
Atlantic City  PTCLDY    70  67  90 NE5       29.91R FOG
Wrightstown    NOT AVBL
Toms River     CLEAR     69  68  96 CALM      29.92R FOG
Belmar         CLEAR     73  72  96 W5        29.92S
$$

PAZ047>061-062-071-281100-
EASTERN PENNSYLVANIA

CITY           SKY/WX    TMP DP  RH WIND       PRES   REMARKS
Philadelphia   MOCLDY    76  70  82 CALM      29.91S
Allentown      CLEAR     65  62  90 CALM      29.93R
Scranton       PTCLDY    65  59  81 E6        29.95R
$$

CTZ002-004>006-009-010-012-RIZ004-006-007-MAZ004-011-015-281100-
SOUTHERN NEW ENGLAND
 IN CT

CITY           SKY/WX    TMP DP  RH WIND       PRES   REMARKS
Bradley INTL   PTCLDY    65  60  84 N3        29.92R
Hartford       CLEAR     72  67  84 S3        29.91R
Danbury        CLEAR     63  61  93 SW3       29.94S
Wtrbury/Oxford PTCLDY    64  61  88 CALM      29.95R
Bridgeport     CLEAR     73  68  84 CALM      29.91R
Meriden        CLEAR     66  63  90 CALM      29.92R
New Haven      PTCLDY    68  67  96 CALM      29.91S
Chester        FAIR      72  68  88 CALM      29.92S
Groton           N/A     69  67  93 CALM      29.91R
Wilimantic     NOT AVBL

 IN RI

CITY           SKY/WX    TMP DP  RH WIND       PRES   REMARKS
Providence     PTCLDY    69  65  86 S3        29.92R
Block Island   FOG       70  69  97 S6        29.93R VSB<1/4
Westerly       CLEAR     66  62  87 CALM      29.93R
 IN MA

CITY           SKY/WX    TMP DP  RH WIND       PRES   REMARKS
Boston         PTCLDY    75  63  66 CALM      29.89R
Worchester     CLEAR     69  59  70 W8        29.94R
Westfield      CLEAR     62  59  90 CALM      29.92R
Provincetown   CLEAR     70  69  97 SW6       29.90R
Nantucket      CLEAR     70  68  93 SW8       29.92R
$$

ANZ330-335-338-340-345-350-353-355-281100-
COASTAL MARINE OBSERVATIONS


STATION/POSITION TIME  SKY/WX   TEMP    WIND        PRES    VSBY  WAVE
                                AIR SEA DIR/SP/G                  HT/PER
                 (UTC)          (F)     (DEG/KT/KT) (MB)    (MI)  (FT/S)
NY HARB ENTRANCE 0850            73 74     CALM     1012.2          1/ 6
20S FIRE ISLAND  0850            76 76  230/  4/  4 1012.1          1/ 6
GREAT SOUTH BAY  0930            77 81  240/  8/ 10   N/A
23 SSW MONTAUK P 0850            71 71  180/  2/  4 1013.0          1/ 7
15 E BARNEGAT LI 0922               78                N/A           1/ 6
HUDSON CANYON    0850            78 79              1012.5          1/ 7
KINGS POINT      0900            73 73              1012.4
EXECUTION ROCKS  0900            72      10/  2/  4   N/A
CENTRAL LI SOUND NOT AVBL
EASTERN LI SOUND 0900            70 68   CALM  /  2   N/A
ROBBINS REEF     0906            77     270/  4/  4 1012.0
$$


>>>>>>>>>>>>>>>>>>>>>>>>>>>> KEY <<<<<<<<<<<<<<<<<<<<<<<<<<<
>                                                          <
>     SKY/WX - Sky Condition/Present Weather               <
>     TMP    - Temperature in Fahrenheit                   <
>     DP     - Dew Point in Fahrenheit                     <
>     RH     - Relative Humidity in Percent                <
>     WIND   - Direction (from) and Speed in MPH           <
>     PRES   - Mean Sea Level Pressure (inches of Hg)      <
>     WCI    - Wind Chill Index                            <
>     VSB    - VISIBILITY IN MILES                         <
>     HX     - HEAT INDEX                                  <
>     TC     - TEMPERATURE IN CELSIUS                      <
>     VRB    - VARIABLE WIND DIRECTION                     <
>                                                          <
>>>>>>>>>>>>>>>>>>>>>>>>>>>> KEY <<<<<<<<<<<<<<<<<<<<<<<<<<<




USA.gov is the U.S. government's official web portal to all federal, state and local government web resources and services.